BREEZE-M R/B

基本信息
目录编号:
33438
目录名称:
BREEZE-M R/B
国际标识:
2008-057C
轨道中心:
EARTH
物体状态:
在轨
发射日期:
2008-11-05 UTC
国别:
俄罗斯(独联体) (CIS)
轨道信息
数据来源: 国际轨道数据
星历时间: 2026-07-13T07:46:25+0800
半长轴: 26610.906km
偏心率: 0.5864528
轨道倾角: 19.754°
近地点辐角: 283.298°
升交点赤经: 124.372°
平近点角: 20.728°
近地点: 4626.728km
远地点: 35838.81km
周期: 720.028分钟
每日圈数: 1.999923
详细信息
发射场:
TTMTR
轨道高度:
MEO
数据来源:
AOE Integration Group
参考系:
TEME
时间系统:
UTC
历元类型:
SGP4
2D轨道图
3D轨道图
轨道高度分析图
轨道倾角分析图
轨道综合分析图
查看轨道综合分析图